User: anonymous   Login
Location: Unspecified
(0.0000°N, 0.0000°E)
Time: 00:20:27
(UTC+00:00)
Language:

USA 155 - Orbit

View from above orbital plane
View from above orbital plane
View from above satellite
View from above satellite

Ground track
Ground track

The orbit data is extracted from the following two-line orbital elements,

1 26635U 00080A   16363.52666265 0.00000000  00000-0  00000-0 0    00
2 26635   7.7956  37.0453 0006218 201.9965 157.9883  1.00270000    00
Epoch (UTC): 28 December 2016 12:38:23
Eccentricity: 0.0006218
inclination: 7.7956°
perigee height: 35760 km
apogee height: 35813 km
right ascension of ascending node: 37.0453°
argument of perigee: 201.9965°
revolutions per day: 1.00270000
mean anomaly at epoch: 157.9883°
orbit number at epoch: 0

The dashed part of the orbit path shows where the satellite is in the earth's shadow,  

DLR